Location: Aula-Vintri
(58.3875°N, 22.4322°E)
Time: 20:55:06
(UTC+00:00)

Cosmos 1758 - Visible Passes

Search period start: 23 January 2020 00:00
Search period end: 02 February 2020 00:00
Orbit: 539 x 564 km, 82.5° (Epoch: 23 January)

Date Brightness Start Highest point End Pass type
(mag) Time Alt. Az. Time Alt. Az. Time Alt. Az.
23 Jan 5.0 03:26:03 27° NNE 03:26:03 27° NNE 03:27:57 10° NNE visible
23 Jan 4.9 05:01:50 18° NW 05:01:50 18° NW 05:03:53 10° N visible
24 Jan 5.3 03:22:37 22° NNE 03:22:37 22° NNE 03:24:07 10° NNE visible
24 Jan 5.1 04:58:23 16° NNW 04:58:23 16° NNW 04:59:58 10° NNW visible
25 Jan 5.5 03:19:05 19° NNE 03:19:05 19° NNE 03:20:17 10° NNE visible
25 Jan 5.2 04:54:51 15° NNW 04:54:51 15° NNW 04:56:03 10° NNW visible
26 Jan 5.6 03:15:30 17° NNE 03:15:30 17° NNE 03:16:26 10° NNE visible
26 Jan 5.4 04:51:15 13° NNW 04:51:15 13° NNW 04:52:07 10° NNW visible
27 Jan 5.8 03:11:52 15° NNE 03:11:52 15° NNE 03:12:35 10° NNE visible
27 Jan 5.5 04:47:38 12° NNW 04:47:38 12° NNW 04:48:11 10° NNW visible
28 Jan 5.9 03:08:13 13° N 03:08:13 13° N 03:08:44 10° NNE visible
28 Jan 5.6 04:43:57 11° NNW 04:43:57 11° NNW 04:44:13 10° NNW visible
29 Jan 6.0 03:04:30 12° N 03:04:30 12° N 03:04:52 10° N visible
30 Jan 6.0 03:00:47 11° N 03:00:47 11° N 03:01:01 10° N visible
31 Jan 6.1 02:57:02 11° N 02:57:02 11° N 02:57:09 10° N visible
01 Feb 6.2 02:53:16 10° N 02:53:16 10° N 02:53:17 10° N visible
